Time,TemperatureF,DewpointF,PressureIn,WindDirection,WindDirectionDegrees,WindSpeedMPH,WindSpeedGustMPH,Humidity,HourlyPrecipIn,Conditions,Clouds,dailyrainin,SoftwareType,DateUTC
2013-05-27 00:04:00,42.6,42.1,30.09,North,0,0.0,-999.0,98,-99.99,,,0.00,Acu-Link.com,2013-05-27 04:04:00,
2013-05-27 00:19:00,42.4,41.9,30.10,North,0,0.0,-999.0,98,-99.99,,,0.00,Acu-Link.com,2013-05-27 04:19:00,
2013-05-27 00:34:00,42.1,41.0,30.10,North,0,0.0,-999.0,96,-99.99,,,0.00,Acu-Link.com,2013-05-27 04:34:00,
2013-05-27 00:49:00,42.3,36.9,30.10,North,0,0.0,-999.0,81,-99.99,,,0.00,Acu-Link.com,2013-05-27 04:49:00,
2013-05-27 01:05:00,42.4,36.1,30.10,North,0,0.0,-999.0,78,-99.99,,,0.00,Acu-Link.com,2013-05-27 05:05:00,
2013-05-27 01:20:00,42.4,37.0,30.10,North,0,0.0,-999.0,81,-99.99,,,0.00,Acu-Link.com,2013-05-27 05:20:00,
2013-05-27 01:35:00,43.0,35.3,30.10,North,0,0.0,-999.0,74,-99.99,,,0.00,Acu-Link.com,2013-05-27 05:35:00,
2013-05-27 01:50:00,43.3,36.3,30.10,North,0,0.0,-999.0,76,-99.99,,,0.00,Acu-Link.com,2013-05-27 05:50:00,
2013-05-27 02:05:00,43.2,35.1,30.10,North,0,0.0,-999.0,73,-99.99,,,0.00,Acu-Link.com,2013-05-27 06:05:00,
2013-05-27 02:21:00,44.1,33.4,30.10,North,0,0.0,-999.0,66,-99.99,,,0.00,Acu-Link.com,2013-05-27 06:21:00,
2013-05-27 02:36:00,43.7,34.2,30.10,North,0,0.0,-999.0,69,-99.99,,,0.00,Acu-Link.com,2013-05-27 06:36:00,
2013-05-27 02:51:00,42.8,33.3,30.11,North,0,0.0,-999.0,69,-99.99,,,0.00,Acu-Link.com,2013-05-27 06:51:00,
2013-05-27 03:06:00,42.1,33.7,30.12,North,0,0.0,-999.0,72,-99.99,,,0.00,Acu-Link.com,2013-05-27 07:06:00,
2013-05-27 03:21:00,42.1,33.7,30.11,North,0,0.0,-999.0,72,-99.99,,,0.00,Acu-Link.com,2013-05-27 07:21:00,
2013-05-27 03:37:00,41.7,34.4,30.12,North,0,0.0,-999.0,75,-99.99,,,0.00,Acu-Link.com,2013-05-27 07:37:00,
2013-05-27 03:52:00,42.3,32.8,30.12,North,0,0.0,-999.0,69,-99.99,,,0.00,Acu-Link.com,2013-05-27 07:52:00,
2013-05-27 04:07:00,43.2,32.2,30.12,North,0,0.0,-999.0,65,-99.99,,,0.00,Acu-Link.com,2013-05-27 08:07:00,
2013-05-27 04:23:00,43.5,32.2,30.12,North,0,0.0,-999.0,64,-99.99,,,0.00,Acu-Link.com,2013-05-27 08:23:00,
2013-05-27 04:38:00,43.3,31.6,30.13,North,0,0.0,-999.0,63,-99.99,,,0.00,Acu-Link.com,2013-05-27 08:38:00,
2013-05-27 04:53:00,43.5,31.8,30.14,North,0,0.0,-999.0,63,-99.99,,,0.00,Acu-Link.com,2013-05-27 08:53:00,
2013-05-27 05:09:00,43.2,32.6,30.14,North,0,0.0,-999.0,66,-99.99,,,0.00,Acu-Link.com,2013-05-27 09:09:00,
2013-05-27 05:24:00,42.4,34.1,30.15,North,0,0.0,-999.0,72,-99.99,,,0.00,Acu-Link.com,2013-05-27 09:24:00,
2013-05-27 05:39:00,41.9,32.8,30.15,North,0,0.0,-999.0,70,-99.99,,,0.00,Acu-Link.com,2013-05-27 09:39:00,
2013-05-27 05:54:00,41.5,32.5,30.16,North,0,0.0,-999.0,70,-99.99,,,0.00,Acu-Link.com,2013-05-27 09:54:00,
2013-05-27 06:09:00,42.1,31.9,30.16,North,0,0.0,-999.0,67,-99.99,,,0.00,Acu-Link.com,2013-05-27 10:09:00,
2013-05-27 06:25:00,42.6,32.1,30.17,North,0,0.0,-999.0,66,-99.99,,,0.00,Acu-Link.com,2013-05-27 10:25:00,
2013-05-27 06:40:00,43.0,32.8,30.17,North,0,0.0,-999.0,67,-99.99,,,0.00,Acu-Link.com,2013-05-27 10:40:00,
2013-05-27 06:55:00,43.7,33.5,30.17,North,0,0.0,-999.0,67,-99.99,,,0.00,Acu-Link.com,2013-05-27 10:55:00,
2013-05-27 07:10:00,45.1,33.3,30.17,North,0,0.0,-999.0,63,-99.99,,,0.00,Acu-Link.com,2013-05-27 11:10:00,
2013-05-27 07:25:00,46.8,34.0,30.18,North,0,0.0,-999.0,61,-99.99,,,0.00,Acu-Link.com,2013-05-27 11:25:00,
2013-05-27 07:41:00,47.8,33.4,30.19,North,0,1.6,-999.0,57,-99.99,,,0.00,Acu-Link.com,2013-05-27 11:41:00,
2013-05-27 07:56:00,49.5,33.0,30.19,North,0,0.0,-999.0,53,-99.99,,,0.00,Acu-Link.com,2013-05-27 11:56:00,
2013-05-27 08:11:00,50.4,34.4,30.19,North,0,0.0,-999.0,54,-99.99,,,0.00,Acu-Link.com,2013-05-27 12:11:00,
2013-05-27 08:26:00,51.1,33.6,30.19,South,180,0.0,-999.0,51,-99.99,,,0.00,Acu-Link.com,2013-05-27 12:26:00,
2013-05-27 08:41:00,52.5,32.3,30.20,SE,135,0.0,-999.0,46,-99.99,,,0.00,Acu-Link.com,2013-05-27 12:41:00,
2013-05-27 08:57:00,54.0,32.6,30.20,WSW,247,1.6,-999.0,44,-99.99,,,0.00,Acu-Link.com,2013-05-27 12:57:00,
2013-05-27 09:12:00,54.7,32.6,30.20,SE,135,3.1,-999.0,43,-99.99,,,0.00,Acu-Link.com,2013-05-27 13:12:00,
2013-05-27 09:27:00,55.9,31.3,30.21,South,180,1.6,-999.0,39,-99.99,,,0.00,Acu-Link.com,2013-05-27 13:27:00,
2013-05-27 09:42:00,56.3,31.0,30.21,SSW,202,4.7,-999.0,38,-99.99,,,0.00,Acu-Link.com,2013-05-27 13:42:00,
2013-05-27 09:57:00,56.7,30.7,30.20,South,180,0.0,-999.0,37,-99.99,,,0.00,Acu-Link.com,2013-05-27 13:57:00,
2013-05-27 10:13:00,56.5,30.5,30.21,ESE,112,3.8,-999.0,37,-99.99,,,0.00,Acu-Link.com,2013-05-27 14:13:00,
2013-05-27 10:28:00,57.0,31.7,30.20,SSE,157,3.8,-999.0,38,-99.99,,,0.00,Acu-Link.com,2013-05-27 14:28:00,
2013-05-27 10:43:00,58.8,31.2,30.20,West,270,2.7,-999.0,35,-99.99,,,0.00,Acu-Link.com,2013-05-27 14:43:00,
2013-05-27 10:58:00,58.3,30.8,30.20,SSW,202,1.1,-999.0,35,-99.99,,,0.00,Acu-Link.com,2013-05-27 14:58:00,
2013-05-27 11:13:00,59.4,29.5,30.20,SE,135,1.6,-999.0,32,-99.99,,,0.00,Acu-Link.com,2013-05-27 15:13:00,
2013-05-27 11:29:00,59.9,29.2,30.20,East,90,4.7,-999.0,31,-99.99,,,0.00,Acu-Link.com,2013-05-27 15:29:00,
2013-05-27 11:44:00,60.3,31.0,30.19,South,180,3.1,-999.0,33,-99.99,,,0.00,Acu-Link.com,2013-05-27 15:44:00,
2013-05-27 11:59:00,60.3,27.9,30.20,South,180,3.1,-999.0,29,-99.99,,,0.00,Acu-Link.com,2013-05-27 15:59:00,
2013-05-27 12:14:00,62.1,33.4,30.19,SSW,202,3.1,-999.0,34,-99.99,,,0.00,Acu-Link.com,2013-05-27 16:14:00,
2013-05-27 12:29:00,62.8,31.7,30.18,East,90,0.0,-999.0,31,-99.99,,,0.00,Acu-Link.com,2013-05-27 16:29:00,
2013-05-27 12:45:00,63.0,30.2,30.18,SSW,202,4.3,-999.0,29,-99.99,,,0.00,Acu-Link.com,2013-05-27 16:45:00,
2013-05-27 13:00:00,61.7,26.5,30.17,ESE,112,1.6,-999.0,26,-99.99,,,0.00,Acu-Link.com,2013-05-27 17:00:00,
2013-05-27 13:15:00,62.6,23.2,30.16,SSW,202,2.2,-999.0,22,-99.99,,,0.00,Acu-Link.com,2013-05-27 17:15:00,
2013-05-27 13:30:00,64.4,25.8,30.17,West,270,2.7,-999.0,23,-99.99,,,0.00,Acu-Link.com,2013-05-27 17:30:00,
2013-05-27 13:45:00,63.3,22.7,30.17,WNW,292,0.0,-999.0,21,-99.99,,,0.00,Acu-Link.com,2013-05-27 17:45:00,
2013-05-27 14:01:00,65.5,22.1,30.16,SSW,202,4.3,-999.0,19,-99.99,,,0.00,Acu-Link.com,2013-05-27 18:01:00,
2013-05-27 14:16:00,66.7,21.9,30.16,ESE,112,2.7,-999.0,18,-99.99,,,0.00,Acu-Link.com,2013-05-27 18:16:00,
2013-05-27 14:31:00,66.2,20.1,30.16,East,90,2.2,-999.0,17,-99.99,,,0.00,Acu-Link.com,2013-05-27 18:31:00,
2013-05-27 14:46:00,65.7,21.0,30.15,East,90,2.7,-999.0,18,-99.99,,,0.00,Acu-Link.com,2013-05-27 18:46:00,
2013-05-27 15:01:00,65.5,20.9,30.15,ESE,112,2.7,-999.0,18,-99.99,,,0.00,Acu-Link.com,2013-05-27 19:01:00,
2013-05-27 15:17:00,64.9,24.1,30.16,West,270,3.1,-999.0,21,-99.99,,,0.00,Acu-Link.com,2013-05-27 19:17:00,
2013-05-27 15:32:00,64.6,22.6,30.16,SE,135,0.0,-999.0,20,-99.99,,,0.00,Acu-Link.com,2013-05-27 19:32:00,
2013-05-27 15:47:00,65.1,23.1,30.16,SE,135,1.1,-999.0,20,-99.99,,,0.00,Acu-Link.com,2013-05-27 19:47:00,
2013-05-27 16:02:00,64.6,21.4,30.16,SE,135,2.7,-999.0,19,-99.99,,,0.00,Acu-Link.com,2013-05-27 20:02:00,
2013-05-27 16:17:00,64.6,22.6,30.15,SE,135,0.0,-999.0,20,-99.99,,,0.00,Acu-Link.com,2013-05-27 20:17:00,
2013-05-27 16:33:00,64.8,23.9,30.15,North,0,0.0,-999.0,21,-99.99,,,0.00,Acu-Link.com,2013-05-27 20:33:00,
2013-05-27 16:48:00,64.8,23.9,30.15,ESE,112,1.1,-999.0,21,-99.99,,,0.00,Acu-Link.com,2013-05-27 20:48:00,
2013-05-27 17:03:00,64.8,20.3,30.16,NNW,337,2.7,-999.0,18,-99.99,,,0.00,Acu-Link.com,2013-05-27 21:03:00,
2013-05-27 17:18:00,64.4,21.3,30.15,ESE,112,0.0,-999.0,19,-99.99,,,0.00,Acu-Link.com,2013-05-27 21:18:00,
2013-05-27 17:34:00,63.7,18.1,30.15,North,0,4.3,-999.0,17,-99.99,,,0.00,Acu-Link.com,2013-05-27 21:34:00,
2013-05-27 17:49:00,63.5,19.3,30.16,South,180,2.7,-999.0,18,-99.99,,,0.00,Acu-Link.com,2013-05-27 21:49:00,
2013-05-27 18:04:00,63.0,25.6,30.15,SSE,157,0.0,-999.0,24,-99.99,,,0.00,Acu-Link.com,2013-05-27 22:04:00,
2013-05-27 18:19:00,62.4,24.1,30.15,North,0,2.2,-999.0,23,-99.99,,,0.00,Acu-Link.com,2013-05-27 22:19:00,
2013-05-27 18:34:00,62.4,19.6,30.15,ESE,112,0.0,-999.0,19,-99.99,,,0.00,Acu-Link.com,2013-05-27 22:34:00,
2013-05-27 18:49:00,61.9,21.5,30.15,South,180,0.0,-999.0,21,-99.99,,,0.00,Acu-Link.com,2013-05-27 22:49:00,
2013-05-27 19:05:00,61.7,23.5,30.16,SE,135,0.0,-999.0,23,-99.99,,,0.00,Acu-Link.com,2013-05-27 23:05:00,
2013-05-27 19:20:00,60.4,27.2,30.16,North,0,0.0,-999.0,28,-99.99,,,0.00,Acu-Link.com,2013-05-27 23:20:00,
2013-05-27 19:35:00,59.5,27.3,30.16,North,0,0.0,-999.0,29,-99.99,,,0.00,Acu-Link.com,2013-05-27 23:35:00,
2013-05-27 19:50:00,58.6,28.1,30.16,North,0,0.0,-999.0,31,-99.99,,,0.00,Acu-Link.com,2013-05-27 23:50:00,
2013-05-27 20:05:00,57.6,29.4,30.16,North,0,0.0,-999.0,34,-99.99,,,0.00,Acu-Link.com,2013-05-28 00:05:00,
2013-05-27 20:21:00,56.8,29.5,30.16,North,0,0.0,-999.0,35,-99.99,,,0.00,Acu-Link.com,2013-05-28 00:21:00,
2013-05-27 20:36:00,55.9,29.4,30.16,North,0,0.0,-999.0,36,-99.99,,,0.00,Acu-Link.com,2013-05-28 00:36:00,
2013-05-27 20:51:00,55.4,29.6,30.16,North,0,0.0,-999.0,37,-99.99,,,0.00,Acu-Link.com,2013-05-28 00:51:00,
2013-05-27 21:06:00,54.0,30.8,30.16,North,0,0.0,-999.0,41,-99.99,,,0.00,Acu-Link.com,2013-05-28 01:06:00,
2013-05-27 21:21:00,52.7,32.0,30.17,North,0,0.0,-999.0,45,-99.99,,,0.00,Acu-Link.com,2013-05-28 01:21:00,
2013-05-27 21:37:00,51.4,33.4,30.17,North,0,0.0,-999.0,50,-99.99,,,0.00,Acu-Link.com,2013-05-28 01:37:00,
2013-05-27 21:52:00,50.2,35.1,30.18,North,0,0.0,-999.0,56,-99.99,,,0.00,Acu-Link.com,2013-05-28 01:52:00,
2013-05-27 22:07:00,49.6,33.7,30.19,North,0,0.0,-999.0,54,-99.99,,,0.00,Acu-Link.com,2013-05-28 02:07:00,
2013-05-27 22:22:00,49.3,34.7,30.19,North,0,0.0,-999.0,57,-99.99,,,0.00,Acu-Link.com,2013-05-28 02:22:00,
2013-05-27 22:37:00,48.7,35.1,30.19,North,0,0.0,-999.0,59,-99.99,,,0.00,Acu-Link.com,2013-05-28 02:37:00,
2013-05-27 22:53:00,48.7,34.2,30.20,North,0,0.0,-999.0,57,-99.99,,,0.00,Acu-Link.com,2013-05-28 02:53:00,
2013-05-27 23:08:00,48.7,35.1,30.21,North,0,0.0,-999.0,59,-99.99,,,0.00,Acu-Link.com,2013-05-28 03:08:00,
2013-05-27 23:23:00,48.0,34.8,30.21,North,0,0.0,-999.0,60,-99.99,,,0.00,Acu-Link.com,2013-05-28 03:23:00,
2013-05-27 23:38:00,47.5,35.9,30.21,North,0,0.0,-999.0,64,-99.99,,,0.00,Acu-Link.com,2013-05-28 03:38:00,
2013-05-27 23:53:00,47.1,36.0,30.21,North,0,0.0,-999.0,65,-99.99,,,0.00,Acu-Link.com,2013-05-28 03:53:00,